When you browse on this site, cookies collect data to enhance your experience and personalize the content and advertising you see.
Visit our Privacy Policy to learn more. By continuing to use the site, you agree to this use of cookies and data.
  • In Netherlands
  • List of Countries
  • For 7 days
  • Water Temperature
  • Weather Map
  • Weather Widgets
  • user-avatar
    Login

    Hourly Weather Pechenki

    Today, 3 June, Wednesday

    Time Temperature Precipitation Wind Pressure Humidity
    00:00 +7°C° 0 mm 2 mps 736 mmHg 96%
    01:00 +6°C° 0 mm 2 mps 736 mmHg 95%
    02:00 +6°C° 0 mm 2 mps 736 mmHg 95%
    03:00 +6°C° 0 mm 2 mps 736 mmHg 95%
    04:00 +6°C° 0 mm 2 mps 736 mmHg 96%
    05:00 +7°C° 0 mm 2 mps 736 mmHg 96%
    06:00 +9°C° 0 mm 2 mps 736 mmHg 92%
    07:00 +10°C° 0 mm 2 mps 736 mmHg 87%
    08:00 +12°C° 0 mm 3 mps 736 mmHg 83%
    09:00 +13°C° 0 mm 3 mps 736 mmHg 78%
    10:00 +14°C° 0 mm 3 mps 736 mmHg 72%
    11:00 +16°C° 0 mm 3 mps 736 mmHg 67%
    12:00 +17°C° 0.1 mm 3 mps 736 mmHg 66%
    13:00 +17°C° 0.1 mm 3 mps 736 mmHg 64%
    14:00 +18°C° 0.1 mm 3 mps 735 mmHg 63%
    15:00 +18°C° 0.1 mm 3 mps 735 mmHg 65%
    16:00 +17°C° 0.1 mm 3 mps 735 mmHg 67%
    17:00 +17°C° 0.1 mm 3 mps 734 mmHg 69%
    18:00 +16°C° 0 mm 2 mps 734 mmHg 74%
    19:00 +14°C° 0 mm 2 mps 734 mmHg 79%
    20:00 +12°C° 0 mm 1 mps 734 mmHg 84%
    21:00 +12°C° 0 mm 1 mps 734 mmHg 86%
    22:00 +11°C° 0 mm 1 mps 734 mmHg 87%
    23:00 +10°C° 0 mm 1 mps 734 mmHg 88%

    Tomorrow, 4 June, Thursday

    Time Temperature Precipitation Wind Pressure Humidity
    00:00 +9°C° 0 mm 1 mps 734 mmHg 89%
    01:00 +9°C° 0 mm 1 mps 734 mmHg 90%
    02:00 +9°C° 0 mm 1 mps 734 mmHg 90%
    03:00 +9°C° 0 mm 1 mps 733 mmHg 91%
    04:00 +9°C° 0 mm 1 mps 733 mmHg 91%
    05:00 +10°C° 0 mm 1 mps 733 mmHg 91%
    06:00 +10°C° 0 mm 2 mps 733 mmHg 88%
    07:00 +12°C° 0 mm 2 mps 733 mmHg 85%
    08:00 +13°C° 0 mm 3 mps 733 mmHg 82%
    09:00 +14°C° 0.5 mm 4 mps 733 mmHg 80%
    10:00 +14°C° 0.5 mm 4 mps 733 mmHg 77%
    11:00 +15°C° 0.5 mm 5 mps 733 mmHg 75%
    12:00 +15°C° 0.8 mm 5 mps 733 mmHg 75%
    13:00 +16°C° 0.8 mm 5 mps 733 mmHg 76%
    14:00 +17°C° 0.8 mm 4 mps 733 mmHg 76%
    15:00 +17°C° 0.3 mm 4 mps 733 mmHg 76%
    16:00 +17°C° 0.3 mm 4 mps 733 mmHg 76%
    17:00 +17°C° 0.3 mm 4 mps 732 mmHg 77%
    18:00 +14°C° 0.2 mm 4 mps 732 mmHg 81%
    19:00 +13°C° 0.2 mm 3 mps 732 mmHg 85%
    20:00 +11°C° 0.2 mm 3 mps 732 mmHg 89%
    21:00 +11°C° 0 mm 3 mps 732 mmHg 91%
    22:00 +10°C° 0 mm 3 mps 732 mmHg 92%
    23:00 +9°C° 0 mm 3 mps 732 mmHg 93%

    Day after tomorrow, 5 June, Friday

    Time Temperature Precipitation Wind Pressure Humidity
    00:00 +9°C° 0.1 mm 3 mps 732 mmHg 94%
    01:00 +9°C° 0.1 mm 3 mps 732 mmHg 95%
    02:00 +8°C° 0.1 mm 3 mps 732 mmHg 95%
    03:00 +9°C° 0 mm 3 mps 732 mmHg 96%
    04:00 +9°C° 0 mm 3 mps 732 mmHg 96%
    05:00 +9°C° 0 mm 3 mps 732 mmHg 96%
    06:00 +10°C° 0.1 mm 3 mps 733 mmHg 94%
    07:00 +12°C° 0.1 mm 4 mps 733 mmHg 91%
    08:00 +14°C° 0.1 mm 4 mps 733 mmHg 89%
    09:00 +15°C° 0.4 mm 4 mps 733 mmHg 84%
    10:00 +17°C° 0.4 mm 4 mps 733 mmHg 80%
    11:00 +17°C° 0.4 mm 5 mps 733 mmHg 76%
    12:00 +17°C° 0.5 mm 5 mps 733 mmHg 77%
    13:00 +19°C° 0.5 mm 5 mps 733 mmHg 77%
    14:00 +19°C° 0.5 mm 5 mps 733 mmHg 78%
    15:00 +19°C° 0.4 mm 5 mps 733 mmHg 79%
    16:00 +17°C° 0.4 mm 5 mps 734 mmHg 81%
    17:00 +17°C° 0.4 mm 5 mps 734 mmHg 83%
    18:00 +17°C° 0.2 mm 4 mps 734 mmHg 87%
    19:00 +15°C° 0.2 mm 4 mps 734 mmHg 92%
    20:00 +14°C° 0.2 mm 4 mps 734 mmHg 96%
    21:00 +14°C° 0.3 mm 4 mps 734 mmHg 97%
    22:00 +14°C° 0.3 mm 4 mps 734 mmHg 97%
    23:00 +14°C° 0.3 mm 5 mps 734 mmHg 98%

    6 June, Saturday

    Time Temperature Precipitation Wind Pressure Humidity
    00:00 +14°C° 0.3 mm 5 mps 734 mmHg 97%
    01:00 +14°C° 0.3 mm 5 mps 734 mmHg 97%
    02:00 +14°C° 0.3 mm 4 mps 734 mmHg 97%
    03:00 +14°C° 0 mm 4 mps 734 mmHg 96%
    04:00 +14°C° 0 mm 4 mps 734 mmHg 96%
    05:00 +15°C° 0 mm 4 mps 734 mmHg 95%
    06:00 +16°C° 0 mm 5 mps 734 mmHg 93%
    07:00 +17°C° 0 mm 5 mps 735 mmHg 91%
    08:00 +19°C° 0 mm 6 mps 735 mmHg 89%
    09:00 +20°C° 0.8 mm 6 mps 735 mmHg 89%
    10:00 +20°C° 0.8 mm 6 mps 736 mmHg 88%
    11:00 +20°C° 0.8 mm 6 mps 736 mmHg 88%
    12:00 +20°C° 0.3 mm 6 mps 737 mmHg 86%
    13:00 +21°C° 0.3 mm 6 mps 737 mmHg 85%
    14:00 +21°C° 0.3 mm 6 mps 737 mmHg 83%
    15:00 +21°C° 0.5 mm 5 mps 738 mmHg 83%
    16:00 +21°C° 0.5 mm 5 mps 738 mmHg 83%
    17:00 +21°C° 0.5 mm 4 mps 738 mmHg 83%
    18:00 +20°C° 0 mm 3 mps 739 mmHg 85%
    19:00 +19°C° 0 mm 3 mps 739 mmHg 87%
    20:00 +18°C° 0 mm 2 mps 740 mmHg 89%
    21:00 +17°C° 0 mm 2 mps 740 mmHg 89%
    22:00 +16°C° 0 mm 1 mps 741 mmHg 89%
    23:00 +15°C° 0 mm 1 mps 742 mmHg 89%

    7 June, Sunday

    Time Temperature Precipitation Wind Pressure Humidity
    00:00 +14°C° 0 mm 1 mps 742 mmHg 88%
    01:00 +13°C° 0 mm 0 mps 742 mmHg 87%
    02:00 +12°C° 0 mm 0 mps 743 mmHg 86%
    03:00 +14°C° 0 mm 1 mps 743 mmHg 87%
    04:00 +14°C° 0 mm 1 mps 743 mmHg 87%
    05:00 +15°C° 0 mm 1 mps 743 mmHg 88%
    06:00 +17°C° 0 mm 2 mps 744 mmHg 86%
    07:00 +18°C° 0 mm 2 mps 744 mmHg 85%
    08:00 +20°C° 0 mm 3 mps 744 mmHg 83%
    09:00 +21°C° 0 mm 3 mps 744 mmHg 80%
    10:00 +22°C° 0 mm 3 mps 745 mmHg 77%
    11:00 +24°C° 0 mm 3 mps 745 mmHg 74%
    12:00 +25°C° 0.3 mm 4 mps 744 mmHg 75%
    13:00 +25°C° 0.3 mm 4 mps 744 mmHg 76%
    14:00 +25°C° 0.3 mm 5 mps 744 mmHg 77%
    15:00 +25°C° 0.3 mm 4 mps 744 mmHg 78%
    16:00 +25°C° 0.3 mm 4 mps 743 mmHg 79%
    17:00 +25°C° 0.3 mm 4 mps 743 mmHg 81%
    18:00 +23°C° 0 mm 4 mps 743 mmHg 83%
    19:00 +21°C° 0 mm 4 mps 743 mmHg 85%
    20:00 +20°C° 0 mm 3 mps 743 mmHg 88%
    21:00 +19°C° 0 mm 3 mps 743 mmHg 89%
    22:00 +18°C° 0 mm 3 mps 743 mmHg 91%
    23:00 +18°C° 0 mm 3 mps 744 mmHg 92%

    8 June, Monday

    Time Temperature Precipitation Wind Pressure Humidity
    00:00 +17°C° 0 mm 3 mps 744 mmHg 93%
    01:00 +17°C° 0 mm 3 mps 744 mmHg 94%
    02:00 +17°C° 0 mm 3 mps 744 mmHg 95%
    03:00 +17°C° 0 mm 3 mps 744 mmHg 95%
    04:00 +17°C° 0 mm 3 mps 744 mmHg 95%
    05:00 +17°C° 0 mm 3 mps 744 mmHg 96%
    06:00 +18°C° 0 mm 3 mps 744 mmHg 92%
    07:00 +20°C° 0 mm 3 mps 744 mmHg 89%
    08:00 +22°C° 0 mm 4 mps 744 mmHg 85%
    09:00 +23°C° 0 mm 4 mps 744 mmHg 81%
    10:00 +25°C° 0 mm 4 mps 744 mmHg 77%
    11:00 +26°C° 0 mm 4 mps 745 mmHg 72%
    12:00 +26°C° 0.2 mm 4 mps 744 mmHg 72%
    13:00 +27°C° 0.2 mm 4 mps 744 mmHg 71%
    14:00 +27°C° 0.2 mm 5 mps 744 mmHg 70%
    15:00 +27°C° 0.2 mm 4 mps 744 mmHg 73%
    16:00 +27°C° 0.2 mm 4 mps 744 mmHg 76%
    17:00 +26°C° 0.2 mm 4 mps 744 mmHg 79%
    18:00 +25°C° 0.1 mm 3 mps 744 mmHg 82%
    19:00 +22°C° 0.1 mm 3 mps 744 mmHg 85%
    20:00 +21°C° 0.1 mm 2 mps 744 mmHg 88%
    21:00 +20°C° 0 mm 2 mps 744 mmHg 89%
    22:00 +20°C° 0 mm 3 mps 744 mmHg 91%
    23:00 +19°C° 0 mm 3 mps 744 mmHg 92%
    Show more